Location: Burbank
(38.7788°N, 114.0429°W)
Time: 14:33:33
(UTC+00:00)

Injun/Solrad 3 - Pass Details

Date: 16 May 2026
Orbit: 867 x 989 km, 66.8° (Epoch: 8 June)

Event Time Altitude Azimuth Distance (km) Brightness Sun altitude
Rises 09:13:46 0° 319° (NW) 3,695 11.3 -27.4°
Reaches altitude 10° 09:16:44 10° 308° (NW) 2,749 10.4 -27.1°
Enters shadow 09:19:49 22° 283° (WNW) 2,001 9.5 -26.9°
Maximum altitude 09:21:56 27° 254° (WSW) 1,812 - -26.7°
Drops below altitude 10° 09:27:08 10° 199° (SSW) 2,729 - -26.2°
Sets 09:30:04 0° 188° (S) 3,663 - -25.9°
